Location: Canyon City
(32.5951°N, 116.5278°W)
Time: 00:35:54
(UTC+00:00)

OAO 3 Rocket - Pass Details

Date: 09 December 2024
Orbit: 618 x 666 km, 35.0° (Epoch: 19 January)

Event Time Altitude Azimuth Distance (km) Brightness Sun altitude
Exits shadow 12:37:56 80° 203° (SSW) 646 3.0 -24.4°
Maximum altitude 12:38:05 82° 163° (SSE) 642 3.0 -24.4°
Drops below altitude 10° 12:42:45 10° 76° (ENE) 1,999 6.5 -23.4°
Sets 12:45:04 0° 76° (ENE) 2,900 7.5 -22.9°
